Location: Napoli
(40.8639°N, 14.2562°E)
Time: 15:32:00
(UTC+02:00)

ISS - Pass Details

Date: 26 May 2025
Orbit: 415 x 417 km, 51.6° (Epoch: 15 June)

Event Time Altitude Azimuth Distance (km) Brightness Sun altitude
Rises 21:30:41 0° 304° (NW) 2,359 2.2 -11.1°
Reaches altitude 10° 21:32:47 10° 302° (WNW) 1,492 0.5 -11.4°
Maximum altitude 21:36:07 70° 219° (SW) 443 -3.7 -11.9°
Enters shadow 21:38:11 21° 138° (SE) 985 -2.5 -12.2°
